Weather History for KI35 - November, 2012

Change the Weather History Date:

Wednesday, November 14, 2012

  Actual Average (KLOZ) Record (KLOZ)
Temperature  
Mean Temperature 38 °F 48 °F  
Max Temperature 50 °F 59 °F 79 °F (1993)
Min Temperature 26 °F 37 °F 12 °F (1969)
Degree Days  
Heating Degree Days 27 17  
Month to date heating degree days 208  
Since 1 July heating degree days 514  
Cooling Degree Days 0 0  
Month to date cooling degree days 0  
Moisture  
Dew Point 29 °F    
Average Humidity 78    
Maximum Humidity 100    
Minimum Humidity 37    
Precipitation  
Precipitation 0.00 in 0.13 in 1.51 in (2007)
Month to date precipitation 1.61  
Sea Level Pressure  
Sea Level Pressure 30.36 in    
Wind  
Wind Speed 0 mph ()    
Max Wind Speed 8 mph    
Max Gust Speed -    
Visibility 8.7 miles    
Events      
T = Trace of Precipitation, MM = Missing Value Source: Averaged Metar Reports

Daily Weather History Graph

Daily Weather History Graph

Search for Another Location

Airport or City:

Trip Planner

Search our weather history database for the weather conditions in past years. The results will help you decide how hot, cold, wet, or windy it might be!

Date:

Astronomy

Nov. 14, 2012 Rise Set
Actual Time 7:11 AM EST 5:24 PM EST
Civil Twilight 6:43 AM EST 5:51 PM EST
Nautical Twilight 6:12 AM EST 6:23 PM EST
Astronomical Twilight 5:41 AM EST 6:53 PM EST
Moon 7:57 AM EST (11/14) 6:13 PM EST (11/14)
Length of Visible Light 11h 08m
Length of Day
10h 13m
New Moon, 1% of the Moon is Illuminated
Nov 14
New Moon
Nov 20
First Quarter
Nov 28
Full
Dec 6
Last Quarter
Dec 13
New

Hourly Weather History & Observations

Time (EST) Temp. Windchill Dew Point Humidity Pressure Visibility Wind Dir Wind Speed Gust Speed Precip Events Conditions
12:15 AM 30.2 °F - 28.4 °F 93% 30.42 in 10.0 mi Calm Calm - N/A   Clear
12:35 AM 30.2 °F - 28.4 °F 93% 30.42 in 10.0 mi Calm Calm - N/A   Clear
12:55 AM 30.2 °F - 28.4 °F 93% 30.42 in 7.0 mi Calm Calm - N/A   Scattered Clouds
1:15 AM 30.2 °F - 28.4 °F 93% 30.41 in 3.0 mi Calm Calm - N/A   Mostly Cloudy
1:35 AM 30.2 °F - 28.4 °F 93% 30.40 in 5.0 mi Calm Calm - N/A   Scattered Clouds
1:55 AM 30.2 °F - 28.4 °F 93% 30.40 in 7.0 mi Calm Calm - N/A   Clear
2:15 AM 28.4 °F - 28.4 °F 100% 30.40 in 7.0 mi Calm Calm - N/A   Clear
2:35 AM 30.2 °F - 28.4 °F 93% 30.40 in 10.0 mi Calm Calm - N/A   Clear
2:55 AM 28.4 °F - 28.4 °F 100% 30.39 in 10.0 mi Calm Calm - N/A   Clear
3:15 AM 28.4 °F - 28.4 °F 100% 30.40 in 1.0 mi Calm Calm - N/A   Mostly Cloudy
3:35 AM 28.4 °F - 28.4 °F 100% 30.39 in 10.0 mi Calm Calm - N/A   Scattered Clouds
3:55 AM 28.4 °F - 28.4 °F 100% 30.39 in 0.5 mi Calm Calm - N/A   Overcast
4:15 AM 28.4 °F 24.6 °F 28.4 °F 100% 30.39 in 0.5 mi NE 3.5 mph - N/A   Overcast
4:35 AM 28.4 °F - 26.6 °F 93% 30.40 in 2.5 mi Calm Calm - N/A   Scattered Clouds
4:55 AM 26.6 °F - 26.6 °F 100% 30.39 in 1.5 mi Calm Calm - N/A   Overcast
5:15 AM 26.6 °F - 26.6 °F 100% 30.39 in 0.5 mi Calm Calm - N/A   Overcast
5:35 AM 26.6 °F - 26.6 °F 100% 30.40 in 0.2 mi Calm Calm - N/A   Overcast
5:55 AM 26.6 °F - 26.6 °F 100% 30.40 in 10.0 mi Calm Calm - N/A   Mostly Cloudy
6:15 AM 26.6 °F - 26.6 °F 100% 30.40 in 4.0 mi Calm Calm - N/A   Mostly Cloudy
6:35 AM 26.6 °F - 26.6 °F 100% 30.40 in 7.0 mi Calm Calm - N/A   Mostly Cloudy
6:55 AM 26.6 °F - 26.6 °F 100% 30.40 in 10.0 mi Calm Calm - N/A   Scattered Clouds
7:15 AM 26.6 °F - 24.8 °F 93% 30.41 in 10.0 mi Calm Calm - N/A   Clear
7:35 AM 26.6 °F - 26.6 °F 100% 30.41 in 7.0 mi Calm Calm - N/A   Scattered Clouds
7:55 AM 26.6 °F 22.6 °F 26.6 °F 100% 30.41 in 10.0 mi ENE 3.5 mph - N/A   Clear
8:15 AM 28.4 °F - 26.6 °F 93% 30.42 in 10.0 mi Calm Calm - N/A   Clear
8:35 AM 28.4 °F 23.3 °F 28.4 °F 100% 30.41 in 10.0 mi NE 4.6 mph - N/A   Clear
8:55 AM 30.2 °F - 28.4 °F 93% 30.42 in 10.0 mi Calm Calm - N/A   Clear
9:15 AM 30.2 °F - 28.4 °F 93% 30.42 in 10.0 mi Calm Calm - N/A   Clear
9:35 AM 32.0 °F - 30.2 °F 93% 30.42 in 10.0 mi Calm Calm - N/A   Clear
9:55 AM 32.0 °F - 30.2 °F 93% 30.41 in 10.0 mi Calm Calm - N/A   Clear
10:15 AM 33.8 °F - 30.2 °F 87% 30.41 in 10.0 mi Calm Calm - N/A   Clear
10:35 AM 35.6 °F - 30.2 °F 81% 30.41 in 10.0 mi Calm Calm - N/A   Clear
10:55 AM 37.4 °F - 30.2 °F 75% 30.41 in 10.0 mi Calm Calm - N/A   Clear
11:15 AM 39.2 °F 35.9 °F 30.2 °F 70% 30.40 in 10.0 mi SSE 4.6 mph - N/A   Clear
11:35 AM 41.0 °F - 30.2 °F 65% 30.40 in 10.0 mi Calm Calm - N/A   Clear
11:55 AM 42.8 °F - 30.2 °F 61% 30.38 in 10.0 mi Calm Calm - N/A   Clear
12:15 PM 44.6 °F - 28.4 °F 53% 30.37 in 10.0 mi Calm Calm - N/A   Clear
12:35 PM 44.6 °F - 26.6 °F 49% 30.35 in 10.0 mi Calm Calm - N/A   Clear
12:55 PM 46.4 °F - 26.6 °F 46% 30.35 in 10.0 mi Calm Calm - N/A   Clear
1:15 PM 46.4 °F - 26.6 °F 46% 30.34 in 10.0 mi Calm Calm - N/A   Clear
1:35 PM 50.0 °F - 26.6 °F 40% 30.33 in 10.0 mi South 3.5 mph - N/A   Clear
1:55 PM 50.0 °F - 26.6 °F 40% 30.32 in 10.0 mi Calm Calm - N/A   Clear
2:15 PM 50.0 °F - 24.8 °F 37% 30.32 in 10.0 mi Calm Calm - N/A   Clear
2:35 PM 50.0 °F - 26.6 °F 40% 30.31 in 10.0 mi Calm Calm - N/A   Clear
2:55 PM 50.0 °F - 26.6 °F 40% 30.30 in 10.0 mi North 4.6 mph - N/A   Clear
3:15 PM 48.2 °F - 30.2 °F 50% 30.30 in 10.0 mi NNW 4.6 mph - N/A   Clear
3:35 PM 48.2 °F - 30.2 °F 50% 30.30 in 10.0 mi North 4.6 mph - N/A   Clear
3:55 PM 46.4 °F - 30.2 °F 53% 30.31 in 10.0 mi Calm Calm - N/A   Clear
4:15 PM 46.4 °F - 28.4 °F 50% 30.30 in 10.0 mi Calm Calm - N/A   Clear
4:35 PM 46.4 °F - 28.4 °F 50% 30.31 in 10.0 mi Calm Calm - N/A   Clear
4:55 PM 44.6 °F - 28.4 °F 53% 30.31 in 10.0 mi Calm Calm - N/A   Clear
5:15 PM 44.6 °F - 28.4 °F 53% 30.31 in 10.0 mi Calm Calm - N/A   Clear
5:35 PM 44.6 °F - 30.2 °F 57% 30.31 in 10.0 mi Calm Calm - N/A   Clear
5:55 PM 44.6 °F - 28.4 °F 53% 30.31 in 10.0 mi Calm Calm - N/A   Clear
6:15 PM 44.6 °F - 30.2 °F 57% 30.31 in 10.0 mi Calm Calm - N/A   Clear
6:35 PM 42.8 °F - 30.2 °F 61% 30.32 in 10.0 mi Calm Calm - N/A   Clear
6:55 PM 42.8 °F - 30.2 °F 61% 30.32 in 10.0 mi Calm Calm - N/A   Clear
7:15 PM 41.0 °F - 30.2 °F 65% 30.32 in 10.0 mi Calm Calm - N/A   Clear
7:35 PM 41.0 °F - 32.0 °F 70% 30.32 in 10.0 mi Calm Calm - N/A   Clear
7:55 PM 41.0 °F 38.0 °F 32.0 °F 70% 30.33 in 10.0 mi WSW 4.6 mph - N/A   Clear
8:15 PM 39.2 °F - 32.0 °F 75% 30.32 in 10.0 mi Calm Calm - N/A   Clear
8:35 PM 37.4 °F - 32.0 °F 81% 30.32 in 10.0 mi Calm Calm - N/A   Clear
8:55 PM 39.2 °F - 32.0 °F 75% 30.31 in 10.0 mi Calm Calm - N/A   Clear
9:15 PM 37.4 °F 32.8 °F 32.0 °F 81% 30.30 in 10.0 mi NE 5.8 mph - N/A   Clear
9:35 PM 37.4 °F - 32.0 °F 81% 30.30 in 10.0 mi Calm Calm - N/A   Clear
9:55 PM 37.4 °F - 30.2 °F 75% 30.31 in 10.0 mi Calm Calm - N/A   Clear
10:15 PM 37.4 °F - 30.2 °F 75% 30.31 in 10.0 mi Calm Calm - N/A   Clear
10:35 PM 35.6 °F - 32.0 °F 87% 30.31 in 10.0 mi Calm Calm - N/A   Clear
10:55 PM 33.8 °F - 32.0 °F 93% 30.30 in 10.0 mi Calm Calm - N/A   Clear
11:15 PM 35.6 °F - 32.0 °F 87% 30.30 in 10.0 mi Calm Calm - N/A   Clear
11:35 PM 33.8 °F - 32.0 °F 93% 30.29 in 10.0 mi Calm Calm - N/A   Clear
11:55 PM 32.0 °F 24.8 °F 32.0 °F 100% 30.28 in 10.0 mi East 8.1 mph - N/A   Clear